TimeMST,TemperatureF,Dew PointF,Humidity,Sea Level PressureIn,VisibilityMPH,Wind Direction,Wind SpeedMPH,Gust SpeedMPH,PrecipitationIn,Events,Conditions,WindDirDegrees,DateUTC
12:53 AM,39.0,35.1,86,30.13,10.0,West,9.2,-,N/A,,Clear,270,2012-11-06 07:53:00
1:53 AM,35.1,33.1,92,30.16,10.0,NE,3.5,-,N/A,,Clear,50,2012-11-06 08:53:00
2:53 AM,28.0,28.0,100,30.19,10.0,South,4.6,-,N/A,,Clear,170,2012-11-06 09:53:00
3:53 AM,30.0,28.9,96,30.19,10.0,WSW,3.5,-,N/A,,Partly Cloudy,240,2012-11-06 10:53:00
4:53 AM,30.0,28.9,96,30.22,10.0,West,5.8,-,N/A,,Clear,270,2012-11-06 11:53:00
5:53 AM,27.0,26.1,96,30.23,10.0,Calm,Calm,-,N/A,,Clear,0,2012-11-06 12:53:00
6:53 AM,25.0,23.0,92,30.27,10.0,SW,4.6,-,N/A,,Clear,220,2012-11-06 13:53:00
7:53 AM,34.0,32.0,92,30.26,10.0,South,3.5,-,N/A,,Clear,190,2012-11-06 14:53:00
8:53 AM,44.1,37.0,76,30.22,10.0,Calm,Calm,-,N/A,,Clear,0,2012-11-06 15:53:00
9:53 AM,51.1,35.1,54,30.22,10.0,West,8.1,-,N/A,,Clear,270,2012-11-06 16:53:00
10:53 AM,55.0,30.9,40,30.19,10.0,NW,9.2,-,N/A,,Partly Cloudy,320,2012-11-06 17:53:00
11:53 AM,55.9,30.0,37,30.18,10.0,Calm,Calm,-,N/A,,Clear,0,2012-11-06 18:53:00
12:53 PM,57.9,32.0,37,30.14,10.0,West,9.2,-,N/A,,Clear,270,2012-11-06 19:53:00
1:53 PM,59.0,30.9,35,30.15,10.0,NW,9.2,-,N/A,,Clear,310,2012-11-06 20:53:00
2:53 PM,57.9,30.0,35,30.17,10.0,NNW,6.9,-,N/A,,Clear,330,2012-11-06 21:53:00
3:53 PM,53.1,30.9,43,30.17,10.0,Calm,Calm,-,N/A,,Partly Cloudy,0,2012-11-06 22:53:00
4:53 PM,44.1,30.0,58,30.18,10.0,SW,4.6,-,N/A,,Clear,230,2012-11-06 23:53:00
5:53 PM,39.0,28.9,67,30.20,10.0,South,10.4,-,N/A,,Clear,180,2012-11-07 00:53:00
6:53 PM,45.0,30.9,58,30.17,10.0,South,5.8,-,N/A,,Clear,170,2012-11-07 01:53:00
7:53 PM,46.9,30.9,54,30.12,10.0,South,6.9,-,N/A,,Clear,180,2012-11-07 02:53:00
8:53 PM,48.9,30.9,50,30.06,10.0,South,15.0,-,N/A,,Clear,190,2012-11-07 03:53:00
9:53 PM,46.9,30.0,52,30.04,10.0,South,13.8,-,N/A,,Clear,190,2012-11-07 04:53:00
10:53 PM,51.1,28.9,43,30.00,10.0,South,13.8,18.4,N/A,,Clear,190,2012-11-07 05:53:00
11:53 PM,50.0,28.9,44,29.99,10.0,SW,15.0,-,N/A,,Clear,220,2012-11-07 06:53:00